Location: Palo Alto
(37.4420°N, 122.1420°W)
Time: 22:03:54
(UTC-07:00)

Daily predictions for brighter satellites

Satellite Brightness Start Highest point End
(mag) Time Altitude Azimuth Time Altitude Azimuth Time Altitude Azimuth
ATLAS 2AS CENTAUR R/B 4.1 20:03:34 10° NW 20:11:07 47° WSW 20:18:06 10° S
Helios 1A 3.2 20:12:52 10° S 20:17:01 74° WSW 20:21:12 10° NNW
Cosmos 1455 Rocket 4.0 20:14:54 10° SE 20:18:29 26° E 20:22:06 10° NNE
Meteor 1-19 Rocket 4.2 20:14:11 10° N 20:19:52 75° E 20:25:27 10° SSE
Meteor 1-29 4.0 20:19:14 10° N 20:22:35 52° WNW 20:25:58 10° SSW
Cosmos 1025 Rocket 3.1 20:18:22 10° N 20:22:43 62° E 20:26:59 10° SSE
Resurs 01 Rocket 2.2 20:19:10 10° S 20:23:33 64° W 20:27:58 10° NNW
Cosmos 968 Rocket 3.4 20:18:31 10° NNW 20:23:40 73° ENE 20:28:45 10° SSE
Cosmos 2227 Rocket 3.5 20:19:31 10° N 20:23:56 23° NE 20:28:20 10° ESE
Cosmos 1809 Rocket 4.4 20:18:34 10° S 20:24:41 73° E 20:30:50 10° NNE
USA 186 2.6 20:22:18 10° SE 20:25:07 29° ENE 20:27:49 10° NNE
Meteor 1-5 Rocket 4.5 20:20:11 10° SSE 20:25:08 42° E 20:30:11 10° NNE
OTV 4 0.4 20:25:06 10° W 20:28:04 79° N 20:31:01 10° E
Okean 2 4.0 20:25:41 10° N 20:29:34 36° ENE 20:33:24 10° SSE
ERS-1 Rocket 4.2 20:27:29 10° ESE 20:31:24 24° ENE 20:35:21 10° NNE
OAO 2 Rocket 4.2 20:28:48 10° SW 20:33:12 31° SSE 20:37:16 12° E
FENGYUN 3A 3.7 20:28:20 10° SSE 20:33:38 67° ENE 20:38:57 10° N
Meteor 1-11 Rocket 4.3 20:29:38 10° SSW 20:35:11 62° W 20:40:42 10° N
Cosmos 1975 4.3 20:35:02 11° SE 20:37:49 19° E 20:40:47 10° NE
Cosmos 1934 Rocket 4.0 20:32:14 10° S 20:38:13 62° E 20:44:19 10° NNE
NOSS 2-1 (D) 3.4 20:35:37 10° SW 20:39:27 80° WNW 20:43:42 10° NNE
ATLAS 2A CENTAUR R/B 3.5 20:37:45 10° WSW 20:39:37 12° SW 20:40:56 10° SSW
Cosmos 2297 Rocket 3.6 20:35:37 10° N 20:39:59 22° NE 20:43:23 13° E
NOSS 2-1 (C) 3.4 20:36:37 10° SW 20:40:27 80° WNW 20:44:44 10° NNE
Cosmos 1315 Rocket 4.4 20:46:45 10° SSW 20:50:30 39° WNW 20:54:18 10° N
Lacrosse 5 rocket 3.3 20:49:09 10° N 20:51:10 14° NNE 20:53:07 10° ENE
Delta 2 Rocket 3.9 20:45:59 10° W 20:51:35 74° S 20:55:17 19° E
Cosmos 1544 Rocket 3.5 20:47:28 10° S 20:51:50 88° WNW 20:56:15 10° N
NOSS 2-1 (E) 4.0 20:52:38 10° SW 20:56:27 58° NW 21:00:47 10° NNE
Cosmos 1777 Rocket 4.0 20:52:29 10° NNW 20:57:46 86° ENE 21:02:58 10° SSE
Cosmos 2219 4.1 20:55:08 10° NW 21:00:31 48° WSW 21:05:52 10° S
EO 1 Delta rocket 4.0 20:55:57 10° N 21:00:36 85° W 21:05:51 10° SSW
Meteor 1-12 Rocket 4.4 20:55:28 10° SSE 21:00:55 50° E 21:06:29 10° NNE
Cosmos 2208 Rocket 4.0 20:57:47 10° SSW 21:03:03 82° ESE 21:08:27 10° NNE
Cosmos 1939 Rocket 3.5 21:05:19 26° ESE 21:06:56 37° ENE 21:10:46 10° N
H-2A R/B 3.7 21:06:54 10° S 21:10:36 48° W 21:14:24 10° NNW
ALOS 3.3 21:06:25 10° S 21:10:53 46° W 21:15:23 10° NNW
Cosmos 2278 3.7 21:10:43 10° SSW 21:16:23 90° E 21:22:06 10° NNE
BREEZE-M DEB (TANK) 4.3 21:14:19 10° WSW 21:18:19 80° NNW 21:33:05 10° NE
Cosmos 1697 Rocket 3.3 21:17:00 25° SE 21:19:01 32° ESE 21:23:59 10° NE
Cosmos 1605 Rocket 4.0 21:13:04 10° S 21:19:26 88° W 21:25:46 10° N
Lacrosse 5 3.9 21:16:24 10° NNW 21:19:38 17° NNE 21:22:12 12° ENE
YAOGAN 11 4.1 21:17:45 22° SSE 21:20:40 82° ENE 21:25:09 10° N
BREEZE-M DEB (TANK) 4.1 21:20:53 10° N 21:22:31 15° NNE 21:23:22 14° NE
SPOT 5 3.7 21:22:12 30° E 21:23:30 35° ENE 21:28:00 10° N
Cosmos 2100 Rocket 4.4 21:21:22 25° SE 21:24:33 42° E 21:30:23 10° NNE
Cosmos 2369 3.8 21:23:17 10° SSW 21:28:56 81° WNW 21:34:40 10° NNE
Envisat 2.9 21:28:27 33° SSE 21:30:42 67° ENE 21:35:45 10° N
Hubble Space Telescope 2.5 21:29:28 10° WSW 21:32:23 20° SSW 21:32:23 20° SSW
Cosmos 1346 Rocket 4.0 21:32:33 10° NNW 21:36:16 41° W 21:39:04 16° SSW
CZ-4 DEB 3.5 21:35:47 39° SW 21:36:30 48° W 21:39:34 10° NNW
RESURS DK-1 4.4 21:34:03 10° NNE 21:36:17 16° NE 21:36:17 16° NE
NOSS 3-4 (A) 3.9 21:29:47 10° NW 21:36:54 82° WSW 21:41:07 29° SSE
NOSS 3-4 (C) 3.8 21:29:54 10° NW 21:37:00 82° WSW 21:41:12 29° SSE
DELTA 2 R/B (1) 3.7 21:32:00 10° W 21:37:34 72° N 21:39:57 35° E
Cosmos 1937 Rocket 4.5 21:33:38 10° N 21:38:13 29° ENE 21:38:37 29° ENE
Cosmos 1980 Rocket 3.5 21:42:25 23° ENE 21:42:25 23° ENE 21:45:05 10° NE
H-2A R/B 1.8 21:46:32 70° E 21:46:40 71° ENE 21:50:46 10° N
Tiangong 1 2.7 21:46:21 10° WNW 21:49:04 29° N 21:49:04 29° N
deb Chang Zheng 4 3.5 21:44:48 10° NNE 21:49:18 89° ESE 21:50:42 44° SSW
ARGOS 3.9 21:49:43 34° ENE 21:49:50 34° ENE 21:54:38 10° N
Cosmos 1626 Rocket 4.1 21:49:42 10° NNW 21:54:01 55° W 21:55:29 36° SSW
Iridium 4 Rocket 4.1 21:54:09 10° NNW 21:59:11 51° W 22:01:48 24° SSW
ASTEX 1 3.5 21:54:38 10° NNE 21:59:13 57° ENE 21:59:13 57° ENE
Cosmos 1500 3.6 21:59:56 60° WNW 21:59:56 60° WNW 22:03:37 10° N
Milstar 3 Cent rocket 3.9 21:44:22 10° W 22:03:09 56° S 22:06:58 40° SE
OTV 4 3.0 22:01:29 10° W 22:02:32 20° W 22:02:32 20° W
SL-24 R/B - RUBIN 2 4.4 21:59:11 10° SSW 22:04:55 81° WNW 22:11:24 10° NNE
Cosmos 1459 Rocket 3.8 22:05:25 40° S 22:07:45 90° SSE 22:13:52 10° N
Cosmos 2227 Rocket 2.9 22:02:48 10° NNW 22:08:15 48° WSW 22:10:13 34° SSW
ERS-1 Rocket 4.2 22:07:21 22° SSW 22:09:57 36° W 22:14:35 10° NNW
Cosmos 1898 Rocket 3.3 22:05:28 10° NNW 22:10:48 83° ENE 22:10:58 81° ESE
MetOp-B 4.0 22:12:24 75° SSE 22:12:54 90° WSW 22:18:17 10° NNW
Terra 3.8 22:14:41 18° NE 22:14:41 18° NE 22:16:38 10° NNE
OAO 2 Rocket 4.0 22:12:35 10° WSW 22:16:14 44° SW 22:16:14 44° SW
Cosmos 1461 4.2 22:16:14 10° NW 22:19:16 33° W 22:19:16 33° W
Cosmos 1656 4.5 22:18:20 10° SW 22:23:46 49° WNW 22:29:11 10° N
Cosmos 2297 Rocket 2.7 22:18:50 10° NNW 22:24:17 50° WSW 22:25:13 45° SW
Cosmos 1802 Rocket 4.1 22:23:41 47° SSW 22:25:40 78° W 22:32:08 10° N
Cosmos 1743 4.5 22:29:48 31° NNW 22:29:48 31° NNW 22:32:04 10° N
Lacrosse 5 rocket 3.2 22:27:09 10° NW 22:28:51 25° NW 22:28:51 25° NW
SL-08 R/B 4.3 22:35:01 87° ESE 22:35:03 87° E 22:41:18 10° N
Cosmos 2016 Rocket 4.3 22:48:24 54° WSW 22:49:12 59° W 22:55:17 10° N
BREEZE-M TANK 4.2 22:49:11 10° WNW 22:53:01 33° WNW 22:53:01 33° WNW
H-2A R/B 3.3 23:02:30 36° N 23:02:30 36° N 23:05:23 10° N
USA 215 3.2 23:01:12 75° N 23:01:12 75° N 23:07:24 10° NW
Cosmos 1697 Rocket 4.2 22:58:28 13° WSW 23:02:54 32° WNW 23:07:57 10° N
Lacrosse 5 3.2 22:58:19 10° NW 23:01:23 37° NNW 23:01:23 37° NNW
SL-16 R/B 4.3 23:07:59 17° NE 23:07:59 17° NE 23:09:14 10° NNE
Cosmos 2098 Rocket 4.5 23:04:30 61° WSW 23:05:04 63° W 23:11:26 10° N
Tsikada Rocket 4.4 23:08:56 10° NNW 23:14:24 60° NW 23:14:24 60° NW
Cosmos 1980 Rocket 3.5 23:24:05 36° WNW 23:24:05 36° WNW 23:29:18 10° N
Terra 4.3 23:53:34 18° NW 23:53:34 18° NW 23:54:56 10° NNW
Cosmos 2322 Rocket 4.1 23:57:13 25° N 23:57:13 25° N 23:59:35 10° NNE
